#timestamp,LO_Frequency,Hit,StdDev 
1664377215.8,286047002.4,N
1664377235.6,286047002.5,N
1664377255.5,286047002.8,N
1664377275.3,286047001.3,N
1664377295.1,286047001.7,N
1664377315.9,286047004.2,Y
1664377335.7,286047001.6,P
1664377355.6,286047002.7,P
1664377375.4,286047002.4,P
1664377395.2,286047001.6,N
1664377415.1,286047004.4,Y
1664377416.0,286047004.4,P
1664377435.8,286047000.3,N
1664377455.6,286047000.7,N
1664377475.5,286047001.9,N
1664377495.3,286047002.1,N
1664377515.2,286047000.9,N
1664377535.9,286047001.0,N
1664377555.7,286047001.2,N
1664377575.6,286047000.0,N
1664377595.4,286046999.7,N
1664377615.2,286047002.8,N
1664377635.1,286047000.2,N
1664377636.0,286047000.2,N
1664377655.8,286047002.4,N
1664377675.7,286047002.4,N
1664377695.5,286047002.1,N
1664377715.3,286047001.7,N
1664377735.2,286047000.2,N
1664377755.0,286047001.9,N
1664377755.9,286047001.9,N
1664377775.7,286047001.4,N
1664377795.6,286047002.0,N
1664377815.4,286047002.6,N
1664377835.3,286046999.8,N
1664377855.1,286047002.8,N
1664377856.0,286047002.8,N
1664377875.8,286047002.0,N
1664377895.7,286047002.5,N
1664377915.5,286047002.3,N
1664377935.4,286047002.5,N
1664377955.2,286047002.0,N
1664377975.0,286047000.8,N
1664377975.9,286047000.8,N
1664377995.8,286046999.4,N
1664378015.6,286046999.6,N
1664378035.4,286046996.9,N
1664378055.3,286046998.4,N
1664378075.1,286046998.1,N
1664378095.9,286047001.0,N
1664378115.7,286046999.7,N
1664378135.5,286047000.3,N
1664378155.4,286047002.5,N
1664378175.2,286047004.3,N
1664378195.1,286047003.9,N
1664378196.0,286047003.9,N
1664378215.8,286047003.5,N
1664378235.6,286047003.1,N
1664378255.5,286047003.7,N
1664378275.3,286047003.3,N
1664378295.2,286047003.8,N
1664378315.9,286047002.7,N
1664378335.7,286047001.7,N
1664378355.6,286047002.5,N
1664378375.4,286047003.8,N
1664378395.2,286047003.9,N
1664378415.1,286047001.9,N
1664378416.0,286047001.9,N
1664378435.8,286047001.6,N
1664378455.7,286047003.9,N
1664378475.5,286047001.4,N
1664378495.3,286047002.7,N
1664378515.2,286047002.3,N
1664378535.0,286047002.1,N
1664378535.9,286047002.1,N
1664378555.8,286047003.1,N
1664378575.6,286047005.5,N
1664378595.4,286047003.2,N
1664378615.3,286047001.7,N
1664378635.1,286047004.0,Y
1664378655.9,286047000.0,P
1664378675.7,286047001.0,N
1664378695.5,286047000.2,N
1664378715.4,286046999.9,N
1664378735.2,286047000.2,N
1664378755.0,286047002.6,N
1664378755.9,286047002.6,N
1664378775.8,286047001.7,N
1664378795.6,286047000.1,N
1664378815.5,286047000.7,N
1664378835.3,286047000.3,N
1664378855.1,286047000.8,N
1664378875.9,286046999.8,N
1664378895.7,286047002.8,N
1664378915.5,286047001.0,N
1664378935.4,286046999.5,N
1664378955.2,286046998.6,N
1664378975.1,286047000.4,N
1664378976.0,286047000.4,N
1664378995.8,286047002.3,N
1664379015.6,286047000.2,N
1664379035.5,286047001.8,N
1664379055.3,286047002.5,N
1664379075.1,286047002.1,N
1664379095.9,286047004.0,Y
1664379115.7,286047001.6,P
1664379135.6,286047002.1,P
1664379155.4,286047001.9,P
1664379175.2,286047002.6,Y
1664379195.1,286046998.4,P
1664379196.0,286046998.4,N
1664379215.8,286046997.5,N
1664379235.7,286046997.7,N
1664379255.5,286046997.1,N
1664379275.3,286046999.3,N
1664379295.2,286046999.0,N
1664379315.0,286046998.6,N
1664379315.9,286046998.6,N
1664379335.8,286046996.6,N
1664379355.6,286046996.5,N
1664379375.4,286046999.1,N
1664379395.3,286046999.0,N
1664379415.1,286046999.6,N
1664379435.8,286046999.5,N
1664379455.7,286046998.6,N
1664379475.5,286047000.3,N
1664379495.4,286046999.7,N
1664379515.2,286047002.7,N
1664379535.0,286046999.7,N
1664379535.9,286046999.7,N
1664379555.8,286047001.6,N
1664379575.6,286047002.5,N
1664379595.4,286047002.3,N
1664379615.3,286047002.4,N
1664379635.1,286047000.0,N
1664379655.9,286046998.2,N
1664379675.7,286046997.4,N
1664379695.5,286046998.0,N
1664379715.4,286046997.1,N
1664379735.2,286046996.5,N
1664379755.1,286046999.3,N
1664379756.0,286046999.3,N
1664379775.8,286046999.1,N
1664379795.6,286047001.2,N
1664379815.5,286047002.1,N
1664379835.3,286046998.2,N
1664379855.1,286047000.6,N
1664379875.9,286047000.5,N
1664379895.7,286047000.6,N
1664379915.6,286046998.3,N
1664379935.4,286046996.5,N
1664379955.2,286046996.5,N
1664379975.1,286046997.8,N
1664379976.0,286046997.8,N
1664379995.8,286046996.6,N
1664380015.6,286046995.6,N
1664380035.5,286046997.6,N
1664380055.3,286046999.1,N
1664380075.2,286046996.5,N
1664380095.9,286046996.8,N
1664380115.7,286046996.6,N
1664380135.6,286046999.1,N
1664380155.4,286046997.3,N
1664380175.3,286046999.4,N
1664380195.1,286046999.3,N
1664380196.0,286046999.3,N
1664380215.8,286046998.1,N
1664380235.7,286047000.8,N
1664380255.5,286046998.1,N
1664380275.3,286046999.9,N
1664380295.2,286046999.7,N
1664380315.0,286047002.0,N
1664380315.9,286047002.0,N
1664380335.8,286047002.2,N
1664380355.6,286047002.8,N
1664380375.4,286047002.4,N
1664380395.3,286047001.0,N
1664380415.1,286047000.5,N
1664380435.8,286047000.9,N
1664380455.7,286046999.9,N
1664380475.5,286046998.6,N
1664380495.4,286046998.2,N
1664380515.2,286046999.9,N
1664380535.0,286046999.7,N
1664380535.9,286046999.7,N
1664380555.8,286047002.2,N
1664380575.6,286047002.3,N
1664380595.5,286047001.6,N
1664380615.3,286047002.7,N
1664380635.1,286047000.4,N
1664380655.9,286046999.6,N
1664380675.7,286046999.1,N
1664380695.6,286046999.8,N
1664380715.4,286046999.9,N
1664380735.2,286047000.1,N
1664380755.1,286047002.4,N
1664380756.0,286047002.4,N
1664380775.8,286047001.3,N
1664380795.6,286047000.0,N
